DW9408 Weather Reports


time (UTC)temp
C
wind
direction
speed
KPH
gust
KPH
rain 1hr
cm
rain 24hr
cm
rain mn
cm
humidity
%
barometer
mb
20260906031955 22 11 0.0 0.0 0.00 0.38 0.38 100 1012.9
20260906031453 22 11 0.0 0.0 0.00 0.38 0.38 100 1013.0
20260906030951 22 11 0.0 0.0 0.00 0.38 0.38 100 1012.9
20260906030449 22 11 0.0 0.0 0.00 0.38 0.38 100 1012.9
20260906030217 22 11 0.0 0.0 0.00 0.38 0.38 100 1013.1
20260906025448 22 11 0.0 0.0 0.00 0.38 0.38 99 1012.9
20260906024946 22 11 0.0 0.0 0.00 0.38 0.38 100 1012.9
20260906024444 22 11 0.0 0.0 0.00 0.38 0.38 100 1012.9
20260906023943 22 11 0.0 0.0 0.00 0.38 0.38 100 1012.8
20260906023441 22 11 0.0 0.0 0.00 0.38 0.38 99 1012.5
20260906022438 22 11 0.0 0.0 0.00 0.38 0.38 99 1012.4
20260906021938 22 11 0.0 0.0 0.00 0.38 0.38 99 1012.2
20260906021436 22 11 0.0 0.0 0.00 0.38 0.38 100 1012.1
20260906020937 22 11 0.0 0.0 0.00 0.38 0.38 99 1012.2
20260906020437 22 11 0.0 0.0 0.00 0.38 0.38 99 1012.2
20260906015936 22 11 0.0 0.0 0.00 0.38 0.38 99 1012.3
20260906015438 22 11 0.0 0.0 0.00 0.38 0.38 99 1012.3
20260906014936 22 11 0.0 0.0 0.00 0.38 0.38 99 1012.2
20260906014438 22 11 0.0 0.0 0.00 0.38 0.38 99 1012.3
20260906013937 23 11 0.0 0.0 0.00 0.38 0.38 99 1012.3
20260906013438 23 11 0.0 0.0 0.00 0.38 0.38 99 1012.1
20260906012938 23 11 0.0 0.0 0.00 0.38 0.38 98 1012.1
20260906012709 23 11 0.0 0.0 0.00 0.38 0.38 99 1012.1
20260906011936 23 11 0.0 0.0 0.00 0.38 0.38 99 1011.9
20260906011437 23 11 0.0 0.0 0.00 0.38 0.38 99 1011.8
20260906010936 23 11 0.0 0.0 0.00 0.38 0.38 98 1011.8
20260906010436 23 11 0.0 0.0 0.00 0.38 0.38 98 1011.6
20260906005938 23 11 0.0 0.0 0.00 0.38 0.38 98 1011.6
20260906005430 23 11 0.0 0.0 0.00 0.38 0.38 98 1011.7
20260906004925 23 11 0.0 0.0 0.00 0.38 0.38 98 1011.6
20260906004419 23 11 0.0 0.0 0.00 0.38 0.38 97 1011.6
20260906003912 23 11 0.0 0.0 0.00 0.38 0.38 97 1011.7
20260906003407 23 11 0.0 0.0 0.00 0.38 0.38 97 1011.8
20260906002901 24 11 0.0 0.0 0.00 0.38 0.38 97 1011.8
20260906002355 24 11 0.0 0.0 0.00 0.38 0.38 96 1011.6
20260906001849 24 11 0.0 0.0 0.00 0.38 0.38 96 1011.6
20260906001343 24 11 0.0 0.0 0.00 0.38 0.38 96 1011.5
20260906000837 24 11 0.0 0.0 0.00 0.38 0.38 96 1011.5
20260906000333 25 11 0.0 0.0 0.00 0.38 0.38 95 1011.4
20260905235825 25 11 0.0 0.0 0.00 0.38 0.38 95 1011.4
20260905235551 25 11 0.0 0.0 0.00 0.38 0.38 94 1011.2
20260905234813 25 11 0.0 0.0 0.00 0.38 0.38 93 1011.1
20260905234307 25 11 0.0 0.0 0.00 0.38 0.38 94 1010.9
20260905233801 25 11 0.0 0.0 0.00 0.38 0.38 92 1011.0
20260905233254 26 11 0.0 0.0 0.00 0.38 0.38 93 1011.0
20260905232749 26 13 0.0 0.0 0.00 0.38 0.38 92 1011.0
20260905232242 26 13 0.0 0.0 0.00 0.38 0.38 91 1011.0
20260905231737 26 13 0.0 0.0 0.00 0.38 0.38 91 1011.0
20260905231231 26 13 0.0 0.0 0.00 0.38 0.38 91 1010.9
20260905230724 26 296 0.0 0.0 0.00 0.38 0.38 91 1010.7
20260905230218 27 296 0.0 0.0 0.00 0.38 0.38 90 1010.7
20260905225712 27 246 1.6 6.4 0.00 0.38 0.38 87 1010.8
20260905225207 27 246 1.6 6.4 0.00 0.38 0.38 83 1010.9
20260905224701 27 70 0.0 0.0 0.00 0.38 0.38 87 1010.9
20260905224156 28 197 0.0 0.0 0.00 0.38 0.38 86 1010.9
20260905223654 28 197 0.0 0.0 0.00 0.38 0.38 85 1010.9
20260905223143 28 197 0.0 0.0 0.00 0.38 0.38 84 1010.9
20260905222637 28 197 0.0 0.0 0.00 0.38 0.38 85 1010.9
20260905222130 27 197 0.0 0.0 0.00 0.38 0.38 85 1010.9
20260905221625 27 197 0.0 0.0 0.00 0.38 0.38 89 1010.9
20260905221349 27 197 0.0 0.0 0.00 0.38 0.38 89 1011.0
20260905220613 27 197 0.0 0.0 0.00 0.38 0.38 90 1011.0
20260905220107 27 197 0.0 0.0 0.00 0.38 0.38 90 1011.2
20260905215601 27 197 0.0 0.0 0.00 0.38 0.38 91 1011.1
20260905215055 27 171 0.0 0.0 0.00 0.38 0.38 91 1011.1
20260905214549 26 182 0.0 0.0 0.00 0.38 0.38 90 1011.1
20260905214043 26 191 0.0 0.0 0.00 0.38 0.38 89 1011.3
20260905213537 26 191 0.0 0.0 0.00 0.38 0.38 90 1011.4
20260905213303 26 191 0.0 0.0 0.00 0.38 0.38 90 1011.4
20260905212525 26 191 0.0 0.0 0.00 0.38 0.38 90 1011.6
20260905212019 26 189 0.0 1.6 0.00 0.38 0.38 90 1011.7
20260905211513 26 255 0.0 1.6 0.00 0.38 0.38 91 1011.8
20260905211007 26 289 0.0 0.0 0.00 0.38 0.38 91 1011.7
20260905210501 26 292 0.0 0.0 0.00 0.38 0.38 90 1011.8
20260905205955 26 292 0.0 0.0 0.00 0.38 0.38 92 1011.7
20260905205719 26 121 0.0 0.0 0.00 0.38 0.38 91 1011.8
20260905205215 26 121 0.0 0.0 0.00 0.38 0.38 89 1011.9
20260905204437 26 113 0.0 0.0 0.00 0.38 0.38 89 1011.9
20260905203930 26 44 0.0 0.0 0.00 0.38 0.38 88 1012.2
20260905203425 26 44 0.0 0.0 0.00 0.38 0.38 90 1012.2
20260905202919 26 44 0.0 0.0 0.00 0.38 0.38 89 1012.3
20260905202413 26 44 0.0 0.0 0.00 0.38 0.38 92 1012.4
20260905201912 25 44 0.0 0.0 0.00 0.38 0.38 90 1012.4
20260905201413 25 44 0.0 0.0 0.00 0.38 0.38 92 1012.4
20260905200914 25 44 0.0 4.8 0.00 0.38 0.38 92 1012.6
20260905200411 25 44 1.6 8.0 0.00 0.38 0.38 94 1012.5
20260905195910 24 346 1.6 9.7 0.00 0.38 0.38 95 1012.4
20260905195409 24 294 1.6 9.7 0.03 0.38 0.38 94 1012.2
20260905194907 23 9 3.2 12.9 0.10 0.38 0.38 95 1012.4
20260905194407 23 331 1.6 12.9 0.18 0.38 0.38 97 1012.5
20260905193905 23 48 1.6 9.7 0.28 0.38 0.38 96 1012.2
20260905193639 22 293 1.6 11.3 0.30 0.38 0.38 97 1012.2
20260905192907 22 252 0.0 11.3 0.38 0.38 0.38 97 1012.3
20260905192407 22 231 0.0 4.8 0.38 0.38 0.38 97 1012.4
20260905191906 22 263 0.0 3.2 0.38 0.38 0.38 97 1012.3
20260905191639 22 5 0.0 3.2 0.38 0.38 0.38 96 1012.3
20260905190904 22 69 0.0 3.2 0.38 0.38 0.38 95 1012.1
20260905190402 22 195 0.0 8.0 0.38 0.38 0.38 94 1012.4
20260905185902 22 195 3.2 19.3 0.38 0.38 0.38 93 1012.9
20260905185359 22 302 6.4 27.4 0.36 0.36 0.36 92 1013.7
20260905184400 23 336 14.5 38.6 0.20 0.20 0.20 88 1014.5
20260905183900 25 341 12.9 38.6 0.10 0.10 0.13 85 1014.4
20260905183400 27 13 6.4 32.2 0.08 0.08 0.08 81 1013.8
20260905182902 30 344 0.0 11.3 0.00 0.00 0.03 83 1013.4
20260905182403 30 295 0.0 0.0 0.00 0.00 0.00 84 1012.8
20260905181903 31 295 0.0 0.0 0.00 0.00 0.00 81 1012.2
20260905181404 31 295 0.0 0.0 0.00 0.00 0.00 77 1011.6
20260905180900 32 295 0.0 0.0 0.00 0.00 0.00 77 1011.7
20260905180402 32 295 0.0 0.0 0.00 0.00 0.00 73 1012.1
20260905175900 32 295 0.0 0.0 0.00 0.00 0.00 70 1012.4
20260905175630 33 295 0.0 1.6 0.00 0.00 0.00 70 1012.4
20260905174859 33 294 0.0 4.8 0.00 0.00 0.00 64 1012.4
20260905174400 33 287 0.0 4.8 0.00 0.00 0.00 62 1012.4
20260905173900 34 244 0.0 0.0 0.00 0.00 0.00 61 1012.5
20260905173630 34 244 0.0 0.0 0.00 0.00 0.00 59 1012.6
20260905172858 34 244 0.0 3.2 0.00 0.00 0.00 59 1012.7
20260905172623 33 244 0.0 3.2 0.00 0.00 0.00 60 1012.7
20260905171846 33 244 0.0 3.2 0.00 0.00 0.00 61 1012.9
20260905171612 33 244 0.0 3.2 0.00 0.00 0.00 61 1012.8
20260905170834 33 157 0.0 0.0 0.00 0.00 0.00 67 1012.8
20260905170328 33 156 0.0 1.6 0.00 0.00 0.00 62 1013.0
20260905165822 33 155 0.0 8.0 0.00 0.00 0.00 65 1013.0
20260905165315 33 150 0.0 8.0 0.00 0.00 0.00 67 1013.0
20260905164811 33 67 0.0 6.4 0.00 0.00 0.00 64 1013.2
20260905164304 33 165 0.0 6.4 0.00 0.00 0.00 67 1013.2
20260905163758 33 218 0.0 1.6 0.00 0.00 0.00 71 1013.3
20260905163252 33 218 0.0 1.6 0.00 0.00 0.00 66 1013.4
20260905162746 33 218 0.0 1.6 0.00 0.00 0.00 67 1013.4
20260905162239 33 246 0.0 1.6 0.00 0.00 0.00 67 1013.5
20260905161734 33 246 0.0 1.6 0.00 0.00 0.00 68 1013.5
20260905161229 33 196 0.0 0.0 0.00 0.00 0.00 68 1013.6
20260905160722 33 179 0.0 1.6 0.00 0.00 0.00 69 1013.6
20260905160447 33 178 0.0 1.6 0.00 0.00 0.00 71 1013.6
20260905155710 32 198 0.0 0.0 0.00 0.00 0.00 71 1013.6
20260905155203 32 198 0.0 0.0 0.00 0.00 0.00 71 1013.6
20260905154657 32 198 0.0 0.0 0.00 0.00 0.00 71 1013.7
20260905154152 32 198 0.0 3.2 0.00 0.00 0.00 72 1013.7
20260905153645 32 198 0.0 3.2 0.00 0.00 0.00 69 1013.7
20260905153140 32 198 0.0 0.0 0.00 0.00 0.00 70 1013.6
20260905152634 32 198 0.0 1.6 0.00 0.00 0.00 71 1013.7
20260905152128 32 184 0.0 1.6 0.00 0.00 0.00 72 1013.7
20260905151852 32 184 0.0 0.0 0.00 0.00 0.00 73 1013.7
20260905151116 31 184 0.0 0.0 0.00 0.00 0.00 76 1013.7
20260905150610 31 184 0.0 0.0 0.00 0.00 0.00 76 1013.7
20260905150334 31 247 0.0 0.0 0.00 0.00 0.00 75 1013.7
20260905145828 31 247 0.0 1.6 0.00 0.00 0.00 78 1013.7
20260905145052 30 247 0.0 1.6 0.00 0.00 0.00 79 1013.7
20260905144547 30 257 0.0 0.0 0.00 0.00 0.00 80 1013.7
20260905144039 30 257 0.0 0.0 0.00 0.00 0.00 79 1013.7
20260905143533 30 257 0.0 0.0 0.00 0.00 0.00 80 1013.8
20260905143028 30 257 0.0 0.0 0.00 0.00 0.00 81 1013.8
20260905142522 30 257 0.0 0.0 0.00 0.00 0.00 84 1013.8
20260905142246 29 257 0.0 0.0 0.00 0.00 0.00 83 1013.8
20260905141741 29 257 0.0 0.0 0.00 0.00 0.00 84 1013.8
20260905141004 28 257 0.0 0.0 0.00 0.00 0.00 86 1013.8
20260905140730 28 257 0.0 0.0 0.00 0.00 0.00 88 1013.8
20260905140224 28 257 0.0 0.0 0.00 0.00 0.00 88 1013.8
20260905135445 27 257 0.0 0.0 0.00 0.00 0.00 90 1013.8
20260905134940 27 257 0.0 0.0 0.00 0.00 0.00 91 1013.8
20260905134433 27 257 0.0 0.0 0.00 0.00 0.00 92 1013.9
20260905133928 26 257 0.0 0.0 0.00 0.00 0.00 93 1013.9
20260905133422 26 257 0.0 1.6 0.00 0.00 0.00 96 1014.1
20260905132916 26 257 0.0 1.6 0.00 0.00 0.00 99 1014.1
20260905132409 25 257 0.0 0.0 0.00 0.00 0.00 99 1014.1
20260905131904 25 257 0.0 0.0 0.00 0.00 0.00 99 1014.1
20260905131358 25 257 0.0 0.0 0.00 0.00 0.00 100 1014.2
20260905130857 24 257 0.0 0.0 0.00 0.00 0.00 100 1014.2
20260905130355 24 257 0.0 0.0 0.00 0.00 0.00 100 1014.1
20260905125853 24 257 0.0 0.0 0.00 0.00 0.00 100 1014.1
20260905124849 23 257 0.0 0.0 0.00 0.00 0.00 100 1014.2
20260905124349 23 257 0.0 0.0 0.00 0.00 0.00 100 1014.3
20260905123849 22 257 0.0 0.0 0.00 0.00 0.00 100 1014.3
20260905123347 22 257 0.0 0.0 0.00 0.00 0.00 100 1014.2
20260905122845 22 257 0.0 0.0 0.00 0.00 0.00 100 1014.1
20260905122343 21 257 0.0 0.0 0.00 0.00 0.00 100 1014.1
20260905121840 21 257 0.0 0.0 0.00 0.00 0.00 100 1014.1
20260905121339 21 257 0.0 0.0 0.00 0.00 0.00 100 1014.1
20260905120837 21 257 0.0 0.0 0.00 0.00 0.00 100 1014.1
20260905120336 21 257 0.0 0.0 0.00 0.00 0.00 100 1014.1
20260905120103 21 257 0.0 0.0 0.00 0.00 0.00 100 1014.0
20260905115601 21 257 0.0 0.0 0.00 0.00 0.00 100 1013.9
20260905114830 21 257 0.0 0.0 0.00 0.00 0.00 100 1013.9
20260905114329 21 257 0.0 0.0 0.00 0.00 0.00 100 1013.7
20260905113828 21 257 0.0 0.0 0.00 0.00 0.00 100 1013.7
20260905113331 21 257 0.0 0.0 0.00 0.00 0.00 100 1013.7
20260905113100 21 257 0.0 0.0 0.00 0.00 0.00 100 1013.6
20260905112558 21 257 0.0 0.0 0.00 0.00 0.00 100 1013.6
20260905112059 21 257 0.0 0.0 0.00 0.00 0.00 100 1013.4
20260905111327 21 257 0.0 0.0 0.00 0.00 0.00 100 1013.5
20260905110826 21 257 0.0 0.0 0.00 0.00 0.00 100 1013.4
20260905110326 21 257 0.0 0.0 0.00 0.00 0.00 100 1013.3
20260905105827 21 257 0.0 0.0 0.00 0.00 0.00 100 1013.2
20260905104827 21 257 0.0 0.0 0.00 0.00 0.00 100 1013.0
20260905104553 21 257 0.0 0.0 0.00 0.00 0.00 100 1013.0
20260905103823 21 257 0.0 0.0 0.00 0.00 0.00 100 1012.9
20260905103324 21 257 0.0 0.0 0.00 0.00 0.00 100 1012.9
20260905102823 21 257 0.0 0.0 0.00 0.00 0.00 100 1012.8
20260905102324 21 257 0.0 0.0 0.00 0.00 0.00 100 1012.8
20260905101823 21 257 0.0 0.0 0.00 0.00 0.00 100 1012.8
20260905101322 21 257 0.0 0.0 0.00 0.00 0.00 100 1012.7
20260905100822 21 257 0.0 0.0 0.00 0.00 0.00 100 1012.8
20260905100324 21 257 0.0 0.0 0.00 0.00 0.00 100 1012.8
20260905095820 21 257 0.0 0.0 0.00 0.00 0.00 100 1012.8
20260905095552 21 257 0.0 0.0 0.00 0.00 0.00 100 1012.7
20260905094822 21 257 0.0 0.0 0.00 0.00 0.00 100 1012.6
20260905094318 21 257 0.0 0.0 0.00 0.00 0.00 100 1012.7
20260905093817 21 257 0.0 0.0 0.00 0.00 0.00 100 1012.7
20260905093317 21 257 0.0 0.0 0.00 0.00 0.00 100 1012.8
20260905092817 21 257 0.0 0.0 0.00 0.00 0.00 100 1012.8
20260905092317 21 257 0.0 0.0 0.00 0.00 0.00 100 1012.8
20260905091817 21 257 0.0 0.0 0.00 0.00 0.00 100 1012.8
20260905091545 21 257 0.0 0.0 0.00 0.00 0.00 100 1012.8
20260905090814 21 257 0.0 0.0 0.00 0.00 0.00 100 1012.7
20260905090314 21 257 0.0 0.0 0.00 0.00 0.00 100 1012.8
20260905085814 21 257 0.0 0.0 0.00 0.00 0.00 100 1012.9
20260905085550 21 257 0.0 0.0 0.00 0.00 0.00 100 1012.8
20260905084315 21 257 0.0 0.0 0.00 0.00 0.00 100 1013.0
20260905083814 21 257 0.0 0.0 0.00 0.00 0.00 100 1013.1
20260905083308 21 257 0.0 0.0 0.00 0.00 0.00 100 1013.1
20260905082801 21 257 0.0 0.0 0.00 0.00 0.00 100 1013.1
20260905082255 21 257 0.0 0.0 0.00 0.00 0.00 100 1013.2
20260905082019 22 257 0.0 0.0 0.00 0.00 0.00 100 1013.2
20260905081515 22 257 0.0 0.0 0.00 0.00 0.00 100 1013.3
20260905080737 22 257 0.0 0.0 0.00 0.00 0.00 100 1013.3
20260905080230 22 257 0.0 0.0 0.00 0.00 0.00 100 1013.4
20260905075724 22 257 0.0 0.0 0.00 0.00 0.00 100 1013.5
20260905075218 22 257 0.0 0.0 0.00 0.00 0.00 100 1013.5
20260905074712 22 257 0.0 0.0 0.00 0.00 0.00 100 1013.5
20260905074207 22 257 0.0 0.0 0.00 0.00 0.00 100 1013.6
20260905073701 22 257 0.0 0.0 0.00 0.00 0.00 100 1013.6
20260905073155 22 257 0.0 0.0 0.00 0.00 0.00 100 1013.6
20260905072921 22 257 0.0 0.0 0.00 0.00 0.00 100 1013.7
20260905072143 22 257 0.0 0.0 0.00 0.00 0.00 100 1013.6
20260905071908 22 257 0.0 0.0 0.00 0.00 0.00 100 1013.7
20260905071130 22 257 0.0 0.0 0.00 0.00 0.00 100 1013.6
20260905070625 22 257 0.0 0.0 0.00 0.00 0.00 100 1013.7
20260905070118 22 257 0.0 0.0 0.00 0.00 0.00 100 1013.7
20260905065844 22 257 0.0 0.0 0.00 0.00 0.00 100 1013.7
20260905065107 22 257 0.0 0.0 0.00 0.00 0.00 100 1013.8
20260905064833 22 257 0.0 0.0 0.00 0.00 0.00 100 1013.9
20260905064325 22 257 0.0 0.0 0.00 0.00 0.00 100 1013.9
20260905063549 22 257 0.0 0.0 0.00 0.00 0.00 100 1013.9
20260905063044 22 257 0.0 0.0 0.00 0.00 0.00 100 1014.0
20260905062537 22 257 0.0 0.0 0.00 0.00 0.00 100 1014.0
20260905062305 22 257 0.0 0.0 0.00 0.00 0.00 100 1014.1
20260905061524 22 257 0.0 0.0 0.00 0.00 0.00 100 1014.1
20260905061249 22 257 0.0 0.0 0.00 0.00 0.00 100 1014.1
20260905060512 22 257 0.0 0.0 0.00 0.00 0.00 100 1014.1
20260905060007 22 257 0.0 0.0 0.00 0.00 0.00 100 1014.2
20260905055504 22 257 0.0 0.0 0.00 0.00 0.00 100 1014.4
20260905055004 22 257 0.0 0.0 0.00 0.00 0.00 100 1014.4
20260905054503 23 257 0.0 0.0 0.00 0.00 0.00 99 1014.5
20260905054231 23 257 0.0 0.0 0.00 0.00 0.00 100 1014.5
20260905053458 23 257 0.0 0.0 0.00 0.00 0.00 100 1014.4
20260905052956 23 257 0.0 0.0 0.00 0.00 0.00 100 1014.3
20260905052454 23 257 0.0 0.0 0.00 0.00 0.00 100 1014.4
20260905051951 23 257 0.0 0.0 0.00 0.00 0.00 100 1014.4
20260905051453 23 257 0.0 0.0 0.00 0.00 0.00 100 1014.4
20260905050952 23 257 0.0 0.0 0.00 0.00 0.00 100 1014.3
20260905050450 23 257 0.0 0.0 0.00 0.00 0.00 99 1014.4
20260905045948 23 257 0.0 0.0 0.00 0.00 0.00 100 1014.5
20260905045448 23 257 0.0 0.0 0.00 0.00 0.00 99 1014.5
20260905044949 23 257 0.0 0.0 0.00 0.00 0.00 99 1014.4
20260905044446 23 257 0.0 0.0 0.00 0.00 0.00 100 1014.4
20260905043945 23 257 0.0 0.0 0.00 0.00 0.00 100 1014.5
20260905043442 23 257 0.0 0.0 0.00 0.00 0.00 100 1014.4
20260905042940 23 257 0.0 0.0 0.00 0.00 0.00 99 1014.4
20260905042440 23 257 0.0 0.0 0.00 0.00 0.00 99 1014.4
20260905041935 23 257 0.0 0.0 0.00 0.00 0.00 99 1014.4
20260905041433 23 257 0.0 0.0 0.00 0.00 0.00 99 1014.4
20260905040932 24 257 0.0 0.0 0.00 0.00 0.00 100 1014.3
20260905035928 24 257 0.0 0.0 0.00 0.00 0.00 99 1014.2
20260905035426 24 257 0.0 0.0 0.00 0.00 0.00 99 1014.2
20260905034926 24 257 0.0 0.0 0.00 0.00 0.00 99 1014.3
20260905034425 24 257 0.0 0.0 0.00 0.00 0.00 99 1014.3
20260905033424 24 257 0.0 0.0 0.00 0.00 0.00 99 1014.2
20260905033155 24 257 0.0 0.0 0.00 0.00 0.00 99 1014.2
20260905032425 24 257 0.0 0.0 0.00 0.00 0.00 99 1014.2